This demonstration page uses our WeatherBlox Daily Observations layout. Learn more.

Left ArrowRight Arrow

41.86663, -103.66717

Hourly Observations for December 31, 2020

Temp ( °F °C ) Dew Point ( °F °C ) Humidity (%) Winds ( mph kmh ) Pressure ( in mb ) Visibility ( mi km ) Precip ( " mm )
12:53 am 00:53 Clear 15 -9.4 8 -13.3 74 74 SE 3 6 30.06 1018 10 16 0.00 0.00
1:53 am 01:53 Clear 17 -8.3 9 -12.8 70 70 E 3 6 30.04 1017 10 16 0.00 0.00
2:53 am 02:53 Clear 20 -6.7 11 -11.7 68 68 N 3 6 30.01 1016 10 16 0.00 0.00
3:53 am 03:53 Clear 17 -8.3 9 -12.8 70 70 SSE 3 6 30.01 1016 10 16 0.00 0.00
4:53 am 04:53 Clear 17 -8.3 9 -12.8 70 70 E 3 6 30.04 1017 10 16 0.00 0.00
5:53 am 05:53 Clear 16 -8.9 9 -12.8 74 74 SSE 3 6 30.06 1018 10 16 0.00 0.00
6:53 am 06:53 Clear 14 -10 7 -13.9 73 73 ESE 5 7 30.08 1019 10 16 0.00 0.00
7:53 am 07:53 Sunny 17 -8.3 8 -13.3 68 68 E 8 13 30.09 1019 10 16 0.00 0.00
8:53 am 08:53 Sunny 25 -3.9 13 -10.6 60 60 ENE 5 7 30.07 1018 10 16 0.00 0.00
9:53 am 09:53 Sunny 29 -1.7 16 -8.9 58 58 Calm 30.07 1018 10 16 0.00 0.00
10:53 am 10:53 Sunny 33 0.6 18 -7.8 54 54 E 3 6 30.06 1018 10 16 0.00 0.00
11:53 am 11:53 Sunny 38 3.3 21 -6.1 51 51 ENE 5 7 30.03 1017 10 16 0.00 0.00
12:53 pm 12:53 Sunny 40 4.4 22 -5.6 49 49 Calm 30.01 1016 10 16 0.00 0.00
1:53 pm 13:53 Sunny 43 6.1 24 -4.4 47 47 N 5 7 30.01 1016 10 16 0.00 0.00
2:53 pm 14:53 Sunny 43 6.1 23 -5 45 45 Calm 30.01 1016 10 16 0.00 0.00
3:53 pm 15:53 Sunny 39 3.9 25 -3.9 57 57 undefined N/A 30.03 1017 10 16 0.00 0.00
4:53 pm 16:53 Clear 32 0 22 -5.6 66 66 WNW 7 11 30.07 1018 10 16 0.00 0.00
5:53 pm 17:53 Clear 26 -3.3 19 -7.2 75 75 NNW 6 9 30.12 1020 10 16 0.00 0.00
6:53 pm 18:53 Clear 26 -3.3 19 -7.2 75 75 WNW 6 9 30.16 1021 10 16 0.00 0.00
7:53 pm 19:53 Clear 25 -3.9 18 -7.8 75 75 NW 7 11 30.17 1022 10 16 0.00 0.00
8:53 pm 20:53 Cloudy 25 -3.9 18 -7.8 75 75 NW 7 11 30.17 1022 10 16 0.00 0.00
9:53 pm 21:53 Partly Cloudy 23 -5 17 -8.3 78 78 NW 8 13 30.17 1022 10 16 0.00 0.00
10:53 pm 22:53 Clear 26 -3.3 19 -7.2 75 75 WNW 9 15 30.14 1021 10 16 0.00 0.00
11:53 pm 23:53 Clear 25 -3.9 20 -6.7 81 81 WNW 5 7 30.14 1021 10 16 0.00 0.00

Powered by AerisWeather